Wooster, OH

3:47 PM EST on December 05, 2019 (GMT -0500)
Wayne County

Weather History for KBJJ - October, 2019

Change the Weather History Date:

Wednesday, October 2, 2019

  Actual Average Record
Temperature  
Mean Temperature 74 °F -  
Max Temperature 86 °F 65 °F 86 °F (2019)
Min Temperature 64 °F 41 °F 28 °F (2003)
Cooling Degree Days 9    
Growing Degree Days 24 (Base 50)    
Moisture  
Dew Point 67 °F    
Average Humidity 86    
Maximum Humidity 100    
Minimum Humidity 56    
Precipitation  
Precipitation 0.09 in - - ()
Sea Level Pressure  
Sea Level Pressure 29.93 in    
Wind  
Wind Speed 5 mph (WNW)    
Max Wind Speed 12 mph    
Max Gust Speed 17 mph    
Visibility 8 miles    
Events Rain    
Averages and records for this station are not official NWS values.
T = Trace of Precipitation, MM = Missing Value Source: NWS Daily Summary

Daily Weather History Graph

Daily Weather History Graph

Search for Another Location

Airport or City:

Astronomy

Oct. 02, 2019 Rise Set
Actual Time 7:24 AM EDT 7:08 PM EDT
Civil Twilight 6:57 AM EDT 7:35 PM EDT
Nautical Twilight 6:25 AM EDT 8:07 PM EDT
Astronomical Twilight 5:53 AM EDT 8:39 PM EDT
Moon 11:50 AM EDT (10/2) 9:59 PM EDT (10/2)
Length of Visible Light 12h 38m
Length of Day
11h 43m
Waxing Crescent, 20% of the Moon is Illuminated
Oct 2
Waxing Crescent
Oct 5
First Quarter
Oct 13
Full
Oct 21
Last Quarter
Oct 27
New

Hourly Weather History & Observations

Time (EDT) Temp. Heat Index Dew Point Humidity Pressure Visibility Wind Dir Wind Speed Gust Speed Precip Events Conditions
12:56 AM 66.9 °F - 66.0 °F 97% 29.93 in 10.0 mi SW 3.5 mph - N/A   Clear
1:56 AM 66.0 °F - 64.9 °F 96% 29.94 in 10.0 mi WSW 3.5 mph - N/A   Clear
2:56 AM 64.0 °F - 63.0 °F 96% 29.94 in 10.0 mi Calm Calm - N/A   Clear
3:56 AM 64.0 °F - 63.0 °F 96% 29.93 in 10.0 mi SW 3.5 mph - N/A   Clear
4:56 AM 66.0 °F - 63.0 °F 90% 29.92 in 10.0 mi SW 3.5 mph - N/A   Clear
5:56 AM 66.0 °F - 64.0 °F 93% 29.92 in 10.0 mi SW 4.6 mph - N/A   Clear
6:56 AM 66.9 °F - 64.0 °F 90% 29.92 in 10.0 mi SW 4.6 mph - N/A   Clear
7:56 AM 69.1 °F - 64.0 °F 84% 29.93 in 10.0 mi SW 3.5 mph - N/A   Partly Cloudy
8:56 AM 70.0 °F - 64.9 °F 84% 29.94 in 10.0 mi SW 4.6 mph - N/A   Clear
9:56 AM 73.9 °F - 64.9 °F 73% 29.94 in 10.0 mi SW 8.1 mph - N/A   Clear
10:56 AM 79.0 °F - 66.0 °F 64% 29.93 in 10.0 mi WSW 8.1 mph - N/A   Clear
11:56 AM 80.1 °F 82.3 °F 66.9 °F 64% 29.92 in 10.0 mi SW 11.5 mph - N/A   Clear
12:56 PM 82.0 °F 84.9 °F 68.0 °F 62% 29.91 in 10.0 mi SW 10.4 mph - N/A   Clear
1:56 PM 82.9 °F 85.8 °F 68.0 °F 60% 29.91 in 10.0 mi West 9.2 mph 17.3 mph N/A   Clear
2:56 PM 84.9 °F 88.2 °F 68.0 °F 57% 29.88 in 10.0 mi SW 10.4 mph - N/A   Partly Cloudy
3:56 PM 82.9 °F 85.0 °F 66.0 °F 56% 29.87 in 10.0 mi West 9.2 mph - 0.00 in   Overcast
4:56 PM 78.1 °F - 71.1 °F 79% 29.89 in 7.0 mi North 6.9 mph - 0.00 in Rain Light Rain
5:56 PM 72.0 °F - 69.1 °F 91% 29.91 in 8.0 mi North 9.2 mph - 0.00 in   Overcast
6:56 PM 71.1 °F - 69.1 °F 93% 29.92 in 5.0 mi NNE 3.5 mph - 0.00 in   Overcast
7:32 PM 71.1 °F - 69.1 °F 93% 29.94 in 5.0 mi North 4.6 mph - 0.00 in Rain Light Rain
7:44 PM 70.0 °F - 69.1 °F 97% 29.95 in 4.0 mi North 5.8 mph - 0.00 in   Overcast
7:56 PM 70.0 °F - 69.1 °F 97% 29.93 in 4.0 mi North 6.9 mph - 0.00 in   Overcast
8:56 PM 69.1 °F - 68.0 °F 96% 29.95 in 4.0 mi North 4.6 mph - 0.01 in   Overcast
9:46 PM 68.0 °F - 68.0 °F 100% 29.97 in 2.5 mi North 4.6 mph - 0.04 in Rain Rain
9:56 PM 68.0 °F - 66.9 °F 96% 29.95 in 2.5 mi North 3.5 mph - 0.07 in Rain Rain
10:09 PM 68.0 °F - 66.9 °F 96% 29.97 in 5.0 mi North 3.5 mph - 0.01 in Rain Light Rain
10:19 PM 68.0 °F - 66.9 °F 96% 29.97 in 5.0 mi North 4.6 mph - 0.01 in   Overcast
10:56 PM 68.0 °F - 66.9 °F 96% 29.96 in 6.0 mi NNW 5.8 mph - 0.01 in   Overcast
11:56 PM 66.9 °F - 66.9 °F 100% 29.94 in 5.0 mi Calm Calm - 0.00 in   Overcast